Date String (YYYY-MM-DD hh:mm:ss) UTC,Instrument flags,Ambient pressure (hPa),Sample flow (lpm),Bypass flow (lpm),Sample temperature (°C),Ambient temperature (°C),ASC tube jacket temperature (°C),LED temperature (°C),Box temperature (°C),Sample RH (%),Span deviation,Mass concentration (μg/m³),Mass concentration (μg/m³),Mass concentration (μg/m³)
DateTimeUTC,F1_M11,P_M11,Q1_M11,Q2_M11,T1_M11,T2_M11,T3_M11,T4_M11,T5_M11,U1_M11,ZSPAN_M11,X0_M11,X2_M11,X1_M11
2021-10-03 13:00:00,,0831.7,5.01,0.00,28.8,27.8,00.0,38.0,30.6,14.5,0000.8,0008.25,0004.18,0003.82
2021-10-03 13:01:00,,0831.6,4.99,0.00,28.8,27.8,00.0,38.0,30.6,14.5,-000.0,0008.29,0004.19,0003.82
2021-10-03 13:02:00,,0831.7,4.99,0.00,28.8,27.8,00.0,38.0,30.5,14.5,-000.3,0008.36,0004.22,0003.84
2021-10-03 13:03:00,,0831.7,5.00,0.00,28.8,27.8,00.0,37.9,30.5,14.5,-000.4,0008.81,0004.24,0003.86
2021-10-03 13:04:00,,0831.7,5.01,0.00,28.8,27.8,00.0,37.9,30.5,14.6,-000.6,0009.07,0004.25,0003.87
2021-10-03 13:05:00,,0831.7,5.00,0.00,28.8,27.8,00.0,38.0,30.6,14.6,-000.5,0009.20,0004.29,0003.90
2021-10-03 13:06:00,,0831.7,5.00,0.00,28.8,27.8,00.0,38.0,30.6,14.6,-000.4,0009.24,0004.31,0003.90
2021-10-03 13:07:00,,0831.6,5.01,0.00,28.8,27.8,00.0,38.0,30.6,14.5,-001.0,0009.34,0004.32,0003.91
2021-10-03 13:08:00,,0831.6,4.99,0.00,28.8,27.8,00.0,37.9,30.5,14.5,-001.1,0010.70,0004.33,0003.92
2021-10-03 13:09:00,,0831.7,4.99,0.00,28.8,27.8,00.0,37.9,30.5,14.5,-001.0,0010.54,0004.34,0003.94
2021-10-03 13:10:00,,0831.7,5.00,0.00,28.8,27.8,00.0,37.9,30.5,14.6,-001.1,0010.82,0004.35,0003.94
2021-10-03 13:11:00,,0831.7,5.00,0.00,28.8,27.8,00.0,37.9,30.6,14.5,-000.6,0010.57,0004.34,0003.94
2021-10-03 13:12:00,,0831.7,5.00,0.00,28.8,27.8,00.0,37.9,30.5,14.5,-000.7,0010.87,0004.37,0003.95
2021-10-03 13:13:00,,0831.7,4.99,0.00,28.8,27.8,00.0,37.9,30.5,14.5,-000.2,0011.13,0004.39,0003.95
2021-10-03 13:14:00,,0831.7,5.00,0.00,28.8,27.8,00.0,37.9,30.5,14.4,-000.1,0010.91,0004.43,0003.95
2021-10-03 13:15:00,,0831.7,5.01,0.00,28.8,27.8,00.0,37.9,30.6,14.4,0000.2,0011.06,0004.43,0003.94
2021-10-03 13:16:00,,0831.7,5.00,0.00,28.8,27.8,00.0,37.9,30.5,14.4,0000.3,0011.89,0004.42,0003.93
2021-10-03 13:17:00,,0831.7,4.99,0.00,28.8,27.8,00.0,37.9,30.5,14.4,0000.5,0012.00,0004.43,0003.93
2021-10-03 13:18:00,,0831.7,5.00,0.00,28.8,27.8,00.0,37.9,30.5,14.4,0001.0,0011.54,0004.45,0003.93
2021-10-03 13:19:00,,0831.7,5.00,0.00,28.8,27.8,00.0,37.9,30.6,14.5,0001.0,0010.30,0004.47,0003.93
2021-10-03 13:20:00,,0831.7,5.00,0.00,28.8,27.8,00.0,37.9,30.6,14.5,0000.9,0011.25,0004.46,0003.92
2021-10-03 13:21:00,,0831.7,5.00,0.00,28.8,27.8,00.0,37.9,30.5,14.4,0000.6,0011.52,0004.45,0003.92
2021-10-03 13:22:00,,0831.8,5.00,0.00,28.8,27.8,00.0,37.9,30.5,14.4,0000.4,0012.49,0004.45,0003.93
2021-10-03 13:23:00,,0831.7,4.99,0.00,28.8,27.8,00.0,37.9,30.5,14.5,0000.8,0012.48,0004.46,0003.93
2021-10-03 13:24:00,,0831.7,5.01,0.00,28.8,27.8,00.0,37.9,30.6,14.6,0000.9,0012.10,0004.44,0003.93
2021-10-03 13:25:00,,0831.7,5.00,0.00,28.8,27.8,00.0,37.9,30.6,14.6,0001.1,0012.13,0004.44,0003.95
2021-10-03 13:26:00,,0831.7,5.00,0.00,28.8,27.8,00.0,37.9,30.6,14.6,0001.4,0012.20,0004.49,0003.97
2021-10-03 13:27:00,,0831.7,5.00,0.00,28.8,27.9,00.0,38.0,30.6,14.6,0001.6,0011.84,0004.50,0003.99
2021-10-03 13:28:00,,0831.7,5.00,0.00,28.8,27.9,00.0,38.0,30.6,14.6,0001.3,0011.37,0004.48,0004.00
2021-10-03 13:29:00,,0831.8,4.99,0.00,28.8,27.9,00.0,38.0,30.6,14.6,0001.1,0011.83,0004.47,0004.01
2021-10-03 13:30:00,,0831.7,5.00,0.00,28.8,27.8,00.0,37.9,30.6,14.5,0001.5,0012.21,0004.44,0004.00
2021-10-03 13:31:00,,0831.7,4.99,0.00,28.8,27.9,00.0,38.0,30.6,14.4,0002.0,0011.17,0004.45,0004.02
2021-10-03 13:32:00,,0831.7,5.00,0.00,28.8,27.9,00.0,38.0,30.6,14.5,0002.5,0010.70,0004.46,0004.03
2021-10-03 13:33:00,,0831.7,4.99,0.00,28.8,27.9,00.0,38.0,30.6,14.5,0002.5,0009.48,0004.46,0004.03
2021-10-03 13:34:00,,0831.7,5.00,0.00,28.8,27.9,00.0,38.0,30.6,14.5,0002.6,0009.48,0004.48,0004.04
2021-10-03 13:35:00,,0831.7,5.00,0.00,28.9,27.9,00.0,38.0,30.6,14.5,0002.6,0009.58,0004.51,0004.05
2021-10-03 13:36:00,,0831.7,5.01,0.00,28.9,28.0,00.0,38.0,30.7,14.5,0002.7,0009.76,0004.53,0004.04
2021-10-03 13:37:00,,0831.7,5.00,0.00,28.9,28.0,00.0,38.0,30.7,14.6,0002.8,0009.51,0004.49,0004.04
2021-10-03 13:38:00,,0831.7,5.00,0.00,28.9,28.0,00.0,38.0,30.7,14.7,0003.0,0009.27,0004.50,0004.05
2021-10-03 13:39:00,,0831.7,4.99,0.00,28.9,28.0,00.0,38.0,30.7,14.7,0003.2,0009.59,0004.52,0004.06
2021-10-03 13:40:00,,0831.7,5.01,0.00,28.9,28.0,00.0,38.0,30.7,14.6,0003.4,0009.55,0004.52,0004.06
2021-10-03 13:41:00,,0831.7,5.01,0.00,28.9,28.0,00.0,38.0,30.7,14.6,0001.3,0009.61,0004.56,0004.08
2021-10-03 13:42:00,,0831.8,5.00,0.00,28.9,28.0,00.0,38.0,30.8,14.5,0000.0,0009.63,0004.57,0004.07
2021-10-03 13:43:00,,0831.7,4.99,0.00,28.9,28.1,00.0,38.0,30.7,14.5,0000.0,0009.76,0004.60,0004.07
2021-10-03 13:44:00,,0831.7,5.00,0.00,28.9,28.1,00.0,38.0,30.7,14.5,0000.0,0009.81,0004.64,0004.07
2021-10-03 13:45:00,,0831.7,5.00,0.00,28.9,28.1,00.0,38.0,30.7,14.4,0000.0,0010.02,0004.67,0004.07
2021-10-03 13:46:00,,0831.8,5.01,0.00,29.0,28.1,00.0,38.0,30.8,14.4,0000.0,0010.37,0004.67,0004.08
2021-10-03 13:47:00,,0831.8,5.00,0.00,29.0,28.1,00.0,38.1,30.8,14.5,0000.0,0010.47,0004.67,0004.08
2021-10-03 13:48:00,,0831.9,4.99,0.00,29.0,28.1,00.0,38.1,30.8,14.5,0000.0,0010.37,0004.68,0004.07
2021-10-03 13:49:00,,0831.9,5.01,0.00,29.0,28.1,00.0,38.1,30.8,14.3,0000.0,0010.24,0004.65,0004.05
2021-10-03 13:50:00,,0831.9,5.01,0.00,29.0,28.2,00.0,38.1,30.8,14.1,0000.0,0009.83,0004.63,0004.04
2021-10-03 13:51:00,,0831.9,4.99,0.00,29.0,28.2,00.0,38.1,30.8,14.2,0000.0,0009.23,0004.61,0004.02
2021-10-03 13:52:00,,0832.0,5.00,0.00,29.0,28.2,00.0,38.1,30.8,14.3,0001.2,0008.81,0004.61,0004.01
2021-10-03 13:53:00,,0831.9,5.01,0.00,29.0,28.2,00.0,38.1,30.8,14.6,0001.2,0008.90,0004.60,0004.01
2021-10-03 13:54:00,,0832.0,4.99,0.00,29.0,28.2,00.0,38.1,30.9,16.0,0001.0,0008.85,0004.53,0003.98
2021-10-03 13:55:00,,0831.9,5.00,0.00,29.1,28.2,00.0,38.1,30.9,15.8,0001.0,0009.10,0004.48,0003.97
2021-10-03 13:56:00,,0831.9,5.00,0.00,29.1,28.3,00.0,38.1,30.9,15.2,0001.2,0008.96,0004.40,0003.95
2021-10-03 13:57:00,,0831.9,5.01,0.00,29.1,28.3,00.0,38.1,30.9,15.3,0001.5,0009.31,0004.40,0003.93
2021-10-03 13:58:00,,0832.0,4.99,0.00,29.1,28.3,00.0,38.1,30.9,15.8,0001.3,0008.96,0004.37,0003.92
2021-10-03 13:59:00,,0832.0,5.00,0.00,29.1,28.3,00.0,38.2,30.9,16.4,0001.3,0008.87,0004.33,0003.90
